Regional Weather Roundup
Issued by NWS Cleveland, OH

Home | Current Version | Previous Version | Text Only | Print | Product List | Glossary Off
Versions: 1 2 3 4 5 6 7 8 9 10 11 12 13 14 15 16 17 18 19 20 21 22 23 24 25 26 27 28 29 30 31 32 33 34 35 36 37 38 39 40 41 42 43 44 45 46 47 48 49 50

000
ASUS41 KCLE 170202
RWRCLE
OHIO REGIONAL WEATHER ROUNDUP
NATIONAL WEATHER SERVICE CLEVELAND, OH
1000 PM EDT MON OCT 16 2017

NOTE: "FAIR" INDICATES FEW OR NO CLOUDS BELOW 12,000 FEET WITH NO
SIGNIFICANT WEATHER AND/OR OBSTRUCTIONS TO VISIBILITY.

OHZ001>008-015>018-024>027-034-035-043-044-170300-
   NORTHWEST OHIO

CITY           SKY/WX    TMP DP  RH WIND       PRES   REMARKS
DEFIANCE       CLEAR     43  40  89 CALM      30.27F
FINDLAY        CLEAR     43  38  82 S6        30.28S
TOLEDO EXPRESS CLEAR     44  43  96 CALM      30.27S
TOLEDO EXEC    CLEAR     46  40  79 CALM      30.28S
LIMA           CLEAR     46  41  82 S6        30.29R
$$

OHZ009>014-019>023-028>033-038-089-170300-
   NORTHEAST OHIO

CITY           SKY/WX    TMP DP  RH WIND       PRES   REMARKS
CLE-HOPKINS    CLEAR     43  38  82 S7        30.31R
CLE-LAKEFRONT  CLEAR     49  35  58 S7        30.28S
CUY CO. ARPT   CLEAR     43  32  65 CALM      30.29S
LORAIN-ELYRIA    N/A    N/A N/A N/A MISG      30.30R
ASHTABULA      CLEAR     40  37  89 CALM      30.29R
AKRON-CANTON   CLEAR     45  34  65 CALM      30.30R
WOOSTER        CLEAR     38  36  92 CALM      30.31R
MANSFIELD      CLEAR     42  37  82 CALM      30.29S
YOUNGSTOWN     CLEAR     41  33  73 CALM      30.29R
$$

OHZ042-051>053-060>062-070>072-077>081-170300-
  SOUTHWEST OHIO

CITY           SKY/WX    TMP DP  RH WIND       PRES   REMARKS
CINC-COVINGTON CLEAR     47  40  76 CALM      30.31R
CINC-LUNKEN    CLEAR     46  43  89 CALM      30.33R
HAMILTON       CLEAR     42  40  92 CALM      30.33R
DAYTON         CLEAR     47  38  71 SW3       30.31R
WRIGHT-PAT AFB NOT AVBL
DAYTON GENERAL CLEAR     45  39  79 CALM      30.30R
WILMINGTON     CLEAR     43  41  93 CALM      30.31R
$$

OHZ036-037-039>041-045>050-054>059-063>069-073>076-082>088-170300-
  CENTRAL AND SOUTHEAST OHIO

CITY           SKY/WX    TMP DP  RH WIND       PRES   REMARKS
COLUMBUS       CLEAR     48  41  76 CALM      30.30R
OSU AIRPORT    CLEAR     47  40  76 CALM      30.30R
BOLTON FIELD   CLEAR     42  40  93 CALM      30.31R
RICKENBACK AFB CLEAR     45  40  84 CALM      30.30S
NEWARK         CLEAR     42  39  89 CALM      30.31R
MARION         PTCLDY    44  38  79 CALM      30.30R
LANCASTER      CLEAR     41  39  93 CALM      30.31R
ZANESVILLE     CLEAR     44  39  82 CALM      30.31R HAZE
NEW PHILLY     NOT AVBL
$$




USA.gov is the U.S. government's official web portal to all federal, state and local government web resources and services.